SIA611 RKSI-WSSS

Flight info

Callsign SIA611
Flight time N/A
Altitude 38000
Route BOPTA2H BOPTA Z51 BEDES Y711 MUGUS Y742 SALMI Q11 TITUS/N0488F400 Q11 TACLE Q12 KABAM N892 MIGUG/K0900F400 N892 MELAS/N0485F400 N892 MABAL MABAL2B
Aircraft A359/H-SDE1E2E3GHIJ1J2J3J5M1P2RWXYZ/LB1D1

Departure

Time N/A
Airport Incheon International Airport (RKSI)

Arrival

Time 2026-05-05 08:49
Airport Singapore Changi Airport (WSSS)
Time Latitude Longitude Altitude Speed Heading
2026-05-05 07:50 5.42856 107.00060 39827 ft 503 kts 214°
2026-05-05 07:51 5.37079 106.96063 39825 ft 502 kts 214°
2026-05-05 07:51 5.31318 106.92078 39825 ft 502 kts 214°
2026-05-05 07:52 5.25595 106.88120 39828 ft 502 kts 214°
2026-05-05 07:52 5.19840 106.84141 39826 ft 502 kts 214°
2026-05-05 07:53 5.14092 106.80168 39827 ft 502 kts 214°
2026-05-05 07:53 5.08352 106.76201 39828 ft 501 kts 214°
2026-05-05 07:54 5.02609 106.72233 39826 ft 501 kts 214°
2026-05-05 07:54 4.96894 106.68285 39826 ft 501 kts 214°
2026-05-05 07:55 4.91147 106.64316 39827 ft 501 kts 214°
2026-05-05 07:55 4.85409 106.60354 39828 ft 501 kts 214°
2026-05-05 07:56 4.79666 106.56389 39830 ft 501 kts 214°
2026-05-05 07:56 4.73962 106.52452 39830 ft 501 kts 213°
2026-05-05 07:57 4.68219 106.48489 39830 ft 501 kts 213°
2026-05-05 07:57 4.62484 106.44532 39830 ft 501 kts 213°
2026-05-05 07:58 4.56741 106.40571 39828 ft 500 kts 213°
2026-05-05 07:58 4.50999 106.36611 39830 ft 501 kts 213°
2026-05-05 07:59 4.45262 106.32655 39826 ft 501 kts 213°
2026-05-05 07:59 4.39522 106.28698 39827 ft 501 kts 213°
2026-05-05 08:00 4.33814 106.24765 39826 ft 500 kts 213°
2026-05-05 08:00 4.28340 106.20458 39828 ft 502 kts 225°
2026-05-05 08:02 4.27862 106.19958 39827 ft 502 kts 227°
2026-05-05 08:03 4.23320 106.14640 39828 ft 502 kts 230°
2026-05-05 08:03 4.18923 106.09202 39826 ft 503 kts 230°
2026-05-05 08:04 4.14524 106.03734 39824 ft 503 kts 230°
2026-05-05 08:04 4.10141 105.98315 39829 ft 503 kts 230°
2026-05-05 08:05 4.05729 105.92880 39832 ft 503 kts 230°
2026-05-05 08:05 4.01307 105.87438 39826 ft 502 kts 230°
2026-05-05 08:06 3.96893 105.82006 39826 ft 502 kts 230°
2026-05-05 08:06 3.92507 105.76607 39826 ft 502 kts 230°
2026-05-05 08:07 3.88088 105.71170 39825 ft 502 kts 230°
2026-05-05 08:07 3.83680 105.65747 39827 ft 502 kts 230°
2026-05-05 08:08 3.79259 105.60309 39825 ft 502 kts 230°
2026-05-05 08:08 3.74848 105.54884 39824 ft 502 kts 230°
2026-05-05 08:09 3.70466 105.49491 39823 ft 502 kts 230°
2026-05-05 08:09 3.66074 105.44064 39823 ft 502 kts 230°
2026-05-05 08:10 3.61678 105.38637 39824 ft 502 kts 230°
2026-05-05 08:10 3.57272 105.33201 39823 ft 501 kts 230°
2026-05-05 08:11 3.52901 105.27809 39822 ft 501 kts 230°
2026-05-05 08:11 3.48496 105.22377 39826 ft 501 kts 230°
2026-05-05 08:12 3.44101 105.16964 39826 ft 501 kts 230°
2026-05-05 08:12 3.39707 105.11544 39826 ft 500 kts 230°
2026-05-05 08:13 3.35348 105.06170 39825 ft 500 kts 230°
2026-05-05 08:13 3.30959 105.00760 39826 ft 500 kts 230°
2026-05-05 08:14 3.27310 104.96264 39719 ft 500 kts 230°
2026-05-05 08:14 3.24386 104.92661 39407 ft 499 kts 230°
2026-05-05 08:14 3.22938 104.90877 39244 ft 495 kts 230°
2026-05-05 08:15 3.20778 104.88216 38823 ft 491 kts 230°
2026-05-05 08:15 3.18621 104.85560 38128 ft 494 kts 230°
2026-05-05 08:15 3.16451 104.82887 37444 ft 494 kts 230°
2026-05-05 08:15 3.14280 104.80214 36770 ft 494 kts 230°
2026-05-05 08:16 3.12110 104.77543 36091 ft 495 kts 230°
2026-05-05 08:16 3.09957 104.74892 35407 ft 496 kts 230°
2026-05-05 08:16 3.07748 104.72172 34668 ft 499 kts 230°
2026-05-05 08:16 3.05582 104.69506 33864 ft 502 kts 230°
2026-05-05 08:17 3.03365 104.66777 32956 ft 505 kts 230°
2026-05-05 08:17 3.01025 104.64141 32072 ft 507 kts 225°
2026-05-05 08:17 2.98577 104.61587 31176 ft 510 kts 225°
2026-05-05 08:17 2.96126 104.59025 30486 ft 509 kts 225°
2026-05-05 08:18 2.93699 104.56466 29853 ft 506 kts 225°
2026-05-05 08:18 2.91283 104.53904 29150 ft 503 kts 225°
2026-05-05 08:18 2.88894 104.51361 28511 ft 499 kts 226°
2026-05-05 08:18 2.86532 104.48844 27893 ft 495 kts 226°
2026-05-05 08:19 2.84208 104.46364 27269 ft 491 kts 226°
2026-05-05 08:19 2.81880 104.43878 26648 ft 488 kts 226°
2026-05-05 08:19 2.79562 104.41403 26032 ft 485 kts 226°
2026-05-05 08:19 2.77266 104.38950 25426 ft 482 kts 226°
2026-05-05 08:20 2.74977 104.36504 24817 ft 479 kts 226°
2026-05-05 08:20 2.72702 104.34074 24209 ft 476 kts 226°
2026-05-05 08:20 2.70438 104.31656 23601 ft 474 kts 226°
2026-05-05 08:20 2.68220 104.29287 22953 ft 471 kts 226°
2026-05-05 08:21 2.65987 104.26901 22759 ft 456 kts 226°
2026-05-05 08:21 2.63855 104.24622 22659 ft 441 kts 226°
2026-05-05 08:21 2.61792 104.22418 22475 ft 427 kts 226°
2026-05-05 08:21 2.59814 104.20305 22293 ft 416 kts 226°
2026-05-05 08:22 2.57865 104.18223 22115 ft 404 kts 226°
2026-05-05 08:22 2.55963 104.16192 21927 ft 394 kts 226°
2026-05-05 08:22 2.54115 104.14218 21749 ft 383 kts 226°
2026-05-05 08:22 2.52284 104.12321 21448 ft 374 kts 222°
2026-05-05 08:23 2.50164 104.10928 20841 ft 357 kts 198°
2026-05-05 08:23 2.47763 104.10473 20518 ft 352 kts 180°
2026-05-05 08:23 2.45311 104.10442 20233 ft 353 kts 178°
2026-05-05 08:23 2.42858 104.10463 19969 ft 352 kts 178°
2026-05-05 08:24 2.40421 104.10479 19723 ft 350 kts 178°
2026-05-05 08:24 2.37986 104.10489 19490 ft 348 kts 178°
2026-05-05 08:24 2.35592 104.10494 19272 ft 347 kts 178°
2026-05-05 08:24 2.33182 104.10497 19046 ft 346 kts 178°
2026-05-05 08:25 2.30779 104.10499 18822 ft 344 kts 178°
2026-05-05 08:25 2.28387 104.10500 18603 ft 343 kts 178°
2026-05-05 08:25 2.25998 104.10501 18387 ft 342 kts 178°
2026-05-05 08:25 2.23624 104.10501 18163 ft 340 kts 178°
2026-05-05 08:26 2.21256 104.10500 17914 ft 339 kts 178°
2026-05-05 08:26 2.18901 104.10501 17670 ft 338 kts 178°
2026-05-05 08:26 2.16585 104.10501 17432 ft 336 kts 178°
2026-05-05 08:26 2.14248 104.10501 17172 ft 335 kts 178°
2026-05-05 08:27 2.11919 104.10501 16927 ft 333 kts 178°
2026-05-05 08:27 2.09598 104.10501 16716 ft 329 kts 178°
2026-05-05 08:27 2.07344 104.10500 16600 ft 318 kts 178°
2026-05-05 08:27 2.05166 104.10499 16487 ft 307 kts 178°
2026-05-05 08:28 2.03060 104.10498 16343 ft 298 kts 178°
2026-05-05 08:28 2.00999 104.10499 16110 ft 293 kts 178°
2026-05-05 08:28 1.98975 104.10499 15877 ft 289 kts 178°
2026-05-05 08:28 1.96991 104.10503 15651 ft 288 kts 178°
2026-05-05 08:29 1.94967 104.10513 15410 ft 287 kts 178°
2026-05-05 08:29 1.92974 104.10524 15171 ft 286 kts 178°
2026-05-05 08:29 1.91007 104.10534 14946 ft 285 kts 178°
2026-05-05 08:30 1.87046 104.10553 14477 ft 283 kts 178°
2026-05-05 08:30 1.85079 104.10562 14243 ft 282 kts 178°
2026-05-05 08:30 1.83123 104.10571 14124 ft 281 kts 178°
2026-05-05 08:30 1.81158 104.10580 14114 ft 281 kts 178°
2026-05-05 08:31 1.79201 104.10589 14115 ft 281 kts 178°
2026-05-05 08:31 1.77242 104.10597 14112 ft 281 kts 178°
2026-05-05 08:31 1.75291 104.10606 14111 ft 281 kts 178°
2026-05-05 08:31 1.73332 104.10615 14112 ft 281 kts 178°
2026-05-05 08:32 1.71414 104.10623 13902 ft 279 kts 178°
2026-05-05 08:32 1.69457 104.10632 13505 ft 282 kts 178°
2026-05-05 08:32 1.67495 104.10642 13114 ft 282 kts 178°
2026-05-05 08:32 1.65577 104.10650 12798 ft 268 kts 178°
2026-05-05 08:33 1.63753 104.10656 12681 ft 257 kts 178°
2026-05-05 08:33 1.61953 104.10677 12414 ft 261 kts 176°
2026-05-05 08:33 1.60127 104.10868 12159 ft 266 kts 171°
2026-05-05 08:33 1.58283 104.11140 11856 ft 268 kts 170°
2026-05-05 08:34 1.56436 104.11417 11571 ft 267 kts 171°
2026-05-05 08:34 1.54625 104.11686 11295 ft 266 kts 171°
2026-05-05 08:34 1.52797 104.11956 11025 ft 264 kts 171°
2026-05-05 08:34 1.50985 104.12223 10751 ft 263 kts 171°
2026-05-05 08:35 1.49175 104.12490 10471 ft 262 kts 171°
2026-05-05 08:35 1.47375 104.12754 10191 ft 261 kts 171°
2026-05-05 08:35 1.45575 104.12819 9906 ft 260 kts 189°
2026-05-05 08:35 1.43874 104.12295 9644 ft 259 kts 202°
2026-05-05 08:36 1.42218 104.11585 9334 ft 259 kts 204°
2026-05-05 08:36 1.40569 104.10864 9065 ft 258 kts 203°
2026-05-05 08:37 1.34089 104.08091 7991 ft 254 kts 203°
2026-05-05 08:37 1.32465 104.07402 7707 ft 253 kts 203°
2026-05-05 08:37 1.30836 104.06711 7440 ft 252 kts 203°
2026-05-05 08:38 1.29223 104.06028 7172 ft 252 kts 203°
2026-05-05 08:38 1.27631 104.05353 6922 ft 251 kts 203°
2026-05-05 08:38 1.26027 104.04674 6654 ft 250 kts 203°
2026-05-05 08:38 1.24431 104.03998 6377 ft 249 kts 203°
2026-05-05 08:39 1.22838 104.03324 6106 ft 248 kts 203°
2026-05-05 08:39 1.21252 104.02653 5852 ft 247 kts 203°
2026-05-05 08:39 1.19682 104.01988 5681 ft 241 kts 203°
2026-05-05 08:39 1.18170 104.01348 5557 ft 231 kts 203°
2026-05-05 08:40 1.16718 104.00733 5443 ft 222 kts 203°
2026-05-05 08:40 1.15322 104.00142 5280 ft 215 kts 203°
2026-05-05 08:40 1.13946 103.99559 5039 ft 213 kts 203°
2026-05-05 08:40 1.12583 103.98981 4788 ft 212 kts 203°
2026-05-05 08:41 1.11245 103.98415 4556 ft 211 kts 203°
2026-05-05 08:41 1.09894 103.97845 4314 ft 210 kts 203°
2026-05-05 08:41 1.08552 103.97282 4058 ft 209 kts 203°
2026-05-05 08:41 1.07232 103.96689 3774 ft 208 kts 210°
2026-05-05 08:42 1.06272 103.95655 3558 ft 203 kts 247°
2026-05-05 08:42 1.06105 103.94276 3529 ft 202 kts 280°
2026-05-05 08:42 1.06495 103.92929 3510 ft 203 kts 294°
2026-05-05 08:42 1.07147 103.91668 3512 ft 204 kts 300°
2026-05-05 08:43 1.07852 103.90437 3521 ft 204 kts 300°
2026-05-05 08:43 1.08555 103.89224 3512 ft 204 kts 300°
2026-05-05 08:43 1.09352 103.88050 3492 ft 206 kts 319°
2026-05-05 08:43 1.10654 103.87554 3510 ft 202 kts
2026-05-05 08:44 1.11991 103.87947 3550 ft 202 kts 25°
2026-05-05 08:44 1.13257 103.88551 3524 ft 203 kts 24°
2026-05-05 08:44 1.14556 103.89123 3517 ft 204 kts 23°
2026-05-05 08:44 1.15861 103.89681 3509 ft 204 kts 22°
2026-05-05 08:45 1.17169 103.90234 3513 ft 204 kts 22°
2026-05-05 08:45 1.18482 103.90786 3408 ft 204 kts 22°
2026-05-05 08:45 1.19777 103.91331 3172 ft 200 kts 22°
2026-05-05 08:45 1.21054 103.91874 2895 ft 198 kts 22°
2026-05-05 08:46 1.22316 103.92410 2624 ft 196 kts 22°
2026-05-05 08:46 1.23558 103.92937 2359 ft 192 kts 22°
2026-05-05 08:46 1.24763 103.93448 2136 ft 189 kts 22°
2026-05-05 08:46 1.25952 103.93952 1888 ft 181 kts 23°
2026-05-05 08:47 1.27073 103.94428 1665 ft 169 kts 23°
2026-05-05 08:47 1.28115 103.94869 1445 ft 157 kts 23°
2026-05-05 08:47 1.29092 103.95285 1232 ft 147 kts 23°
2026-05-05 08:47 1.30013 103.95675 1042 ft 144 kts 23°
2026-05-05 08:48 1.30934 103.96066 870 ft 144 kts 24°
2026-05-05 08:48 1.31860 103.96450 702 ft 143 kts 24°
2026-05-05 08:48 1.32774 103.96821 539 ft 141 kts 25°
2026-05-05 08:48 1.33657 103.97216 394 ft 142 kts 27°
2026-05-05 08:49 1.34565 103.97616 182 ft 139 kts 26°
2026-05-05 08:49 1.35445 103.97979 51 ft 137 kts 25°
2026-05-05 08:49 1.36104 103.98261 37 ft 115 kts 23°
2026-05-05 08:49 1.36574 103.98458 37 ft 30 kts 27°
2026-05-05 08:50 1.36628 103.98495 37 ft 7 kts 37°
2026-05-05 08:50 1.36697 103.98559 37 ft 16 kts 48°
2026-05-05 08:50 1.36736 103.98625 37 ft 10 kts 77°
2026-05-05 08:50 1.36706 103.98682 37 ft 10 kts 157°
2026-05-05 08:51 1.36636 103.98672 37 ft 11 kts 202°
2026-05-05 08:51 1.36553 103.98638 37 ft 14 kts 203°
2026-05-05 08:51 1.36458 103.98598 37 ft 16 kts 203°
2026-05-05 08:51 1.36347 103.98551 37 ft 18 kts 203°
2026-05-05 08:52 1.36225 103.98499 37 ft 20 kts 202°
2026-05-05 08:52 1.36089 103.98442 37 ft 22 kts 203°
2026-05-05 08:52 1.35948 103.98382 37 ft 22 kts 202°
2026-05-05 08:52 1.35800 103.98320 37 ft 24 kts 202°
2026-05-05 08:53 1.35648 103.98256 37 ft 24 kts 203°
2026-05-05 08:53 1.35488 103.98189 37 ft 26 kts 202°
2026-05-05 08:53 1.35322 103.98119 37 ft 27 kts 203°
2026-05-05 08:53 1.35161 103.98051 37 ft 25 kts 203°
2026-05-05 08:54 1.35021 103.97992 37 ft 19 kts 203°
2026-05-05 08:54 1.34928 103.97953 36 ft 11 kts 203°
2026-05-05 08:54 1.34860 103.97935 37 ft 11 kts 172°
2026-05-05 08:54 1.34810 103.97988 37 ft 11 kts 115°
2026-05-05 08:55 1.34775 103.98066 37 ft 13 kts 113°
2026-05-05 08:55 1.34736 103.98157 37 ft 15 kts 113°
2026-05-05 08:55 1.34694 103.98256 43 ft 13 kts 113°
2026-05-05 08:55 1.34668 103.98316 50 ft 6 kts 113°
2026-05-05 08:56 1.34657 103.98340 53 ft 5 kts 113°
2026-05-05 08:56 1.34635 103.98394 49 ft 10 kts 113°
2026-05-05 08:56 1.34606 103.98462 47 ft 13 kts 113°
2026-05-05 08:56 1.34556 103.98580 37 ft 24 kts 114°
2026-05-05 08:57 1.34492 103.98727 37 ft 18 kts 113°
2026-05-05 08:57 1.34457 103.98808 37 ft 11 kts 112°
2026-05-05 08:57 1.34481 103.98875 37 ft 11 kts 38°
2026-05-05 08:57 1.34558 103.98913 37 ft 14 kts 25°
2026-05-05 08:58 1.34651 103.98955 37 ft 16 kts 22°
2026-05-05 08:58 1.34758 103.99000 37 ft 18 kts 22°
2026-05-05 08:58 1.34849 103.99022 37 ft 11 kts 346°
2026-05-05 08:58 1.34926 103.98981 37 ft 14 kts 337°
2026-05-05 08:59 1.34996 103.98984 36 ft 7 kts 45°
2026-05-05 08:59 1.35014 103.99033 37 ft 7 kts 84°
2026-05-05 08:59 1.35015 103.99037 37 ft 0 kts 84°
2026-05-05 08:59 1.35016 103.99051 37 ft 3 kts 83°
2026-05-05 09:00 1.35017 103.99056 37 ft 0 kts 83°